Regional Weather Roundup
Issued by NWS

Home | Current Version | Previous Version | Text Only | Print | Product List | Glossary Off
Versions: 1 2 3 4 5 6 7 8 9 10 11 12 13 14 15 16 17 18 19 20 21 22 23 24 25 26 27 28 29 30 31 32 33 34 35 36 37 38 39 40 41 42 43 44 45 46 47 48 49 50

000
ASUS45 KBOI 022110
RWRID

IDAHO REGIONAL WEATHER ROUNDUP
NATIONAL WEATHER SERVICE BOISE ID
300 PM MDT TUE JUN 02 2015

NOTE: "FAIR" INDICATES FEW OR NO CLOUDS BELOW 12000 FEET
WITH NO SIGNIFICANT WEATHER AND/OR OBSTRUCTIONS TO VISIBILITY

IDZ012-014-022200-
SOUTHWEST IDAHO


CITY           SKY/WX    TMP DP  RH WIND       PRES   REMARKS
BOISE          SUNNY     73  42  32 CALM      29.96F
CALDWELL       PTSUNNY   70  41  35 S21G26    29.98R
$$

IDZ016-017-022200-
SOUTHCENTRAL IDAHO


CITY           SKY/WX    TMP DP  RH WIND       PRES   REMARKS
BURLEY         MOSUNNY   72  45  37 W9G17     29.99F
JEROME         SUNNY     71  39  31 W15G23    30.00F
TWIN FALLS     MOSUNNY   73  41  31 SW7       29.98F
$$

IDZ019>023-022200-
SOUTHEAST IDAHO


CITY           SKY/WX    TMP DP  RH WIND       PRES   REMARKS
IDAHO FALLS    PTSUNNY   69  51  52 S8        30.00F
POCATELLO      MOSUNNY   70  49  47 W14       30.01F
REXBURG        MOSUNNY   67  46  47 SW8       29.99F
$$

IDZ006-010-011-018-031-032-022200-
CENTRAL IDAHO MOUNTAINS


CITY           SKY/WX    TMP DP  RH WIND       PRES   REMARKS
MCCALL         TSTM      48  44  86 SW10      30.06R FOG
HAILEY         MOSUNNY   66  39  37 SW12      30.03F
STANLEY          N/A     52  40  63 W8G23     30.08R
SALMON           N/A     64  45  48 NE30G37   29.89R THUNDER
CHALLIS        PTSUNNY   71  29  21 SW14      29.93F
$$

IDZ002-004-006-007-026-022200-
NORTHERN IDAHO


CITY           SKY/WX    TMP DP  RH WIND       PRES   REMARKS
LEWISTON       MOSUNNY   70  47  43 MISG      29.94F
LOWELL           N/A     65  54  67 CALM      29.96F
COEUR D`ALENE  CLOUDY    59  46  63 S14G20    29.96S
MULLAN PASS    LGT RAIN  41  41 100 VRB5      30.03S VSB 1/4
$$


USA.gov is the U.S. government's official web portal to all federal, state and local government web resources and services.